Radar is unstable, so pay attention to the date and time in the image

Latest  Newer  Older  Last 2 hours animation  Current image  Latest image  Summary per 24h (testing)  Summary per 7d (testing) 
Cloud coverage sat images  Infrared sat images 
Real-time lightning map Aurora Forecast

All time is UTC (add 2 hours in wintertime, 3 hours in DST for Latvia local time)

2021/10/26 02:20 EVRA 260220Z 18007KT CAVOK 02/01 Q1016 R18/090095 NOSIG
2021/10/26 02:20 EVLA 260220Z AUTO 23008KT 9999 FEW017/// BKN024/// BKN210/// 09/06 Q1015
2021/10/26 02:20 EVVA 260220Z AUTO 25009KT 210V270 9999 OVC023 10/07 Q1014
2021/10/26 02:20 EYKA 260220Z 17007KT 150V210 CAVOK 03/M00 Q1018
2021/10/26 02:20 EYPA 260220Z 16004KT 9999 BKN020 BKN210 06/05 Q1016
2021/10/26 02:20 EYSA 260220Z 20007KT CAVOK 03/02 Q1017 NOSIG
2021/10/26 02:20 EYVI 260220Z 19009KT CAVOK 01/M01 Q1019 NOSIG
2021/10/25 15:20 EEKA 251520Z 21008KT 170V250 9999 OVC023 10/06 Q1014
2021/10/26 02:20 EEKE 260220Z AUTO 25004KT 180V290 9999NDV FEW021 OVC030 09/06 Q1013

2021/10/26 02:20 EETN 260220Z 23008KT 9999 OVC023 08/06 Q1011
2021/10/26 02:20 EETU 260220Z AUTO 21009KT 9999 BKN027/// OVC200/// 04/02 Q1014
   RIGA AIRPORT     EVRA               56 55N  023 58E   10   X     T          6 LV
   LIEPAJA INTL     EVLA        26406  56 31N  021 06E    4   X                8 LV
   VENTPILS         EVVA               57 21N  021 33E    6   X                8 LV
   KAUNAS           EYKA               54 54N  023 55E   77   X     T          6 LT
   PALANGA INTL     EYPA               55 55N  021 03E   10   X                6 LT
   SIAULIAI INTL    EYSA               55 54N  023 24E  135   X     T          6 LT
   VILNIUS INTL     EYVI        26730  54 38N  025 17E  197   X     T          6 LT
   KARDLA           EEKA        26116  58 59N  022 50E    4   X                8 EE
   KURESSAARE       EEKE               58 14N  022 31E    4   X                8 EE
   PARNU            EEPU               58 25N  024 28E   14   X                8 EE
   TALLINN          EETN        26038  59 24N  024 49E   40   X     T          8 EE
   TARTU            EETU               58 19N  026 41E   67   X                8 EE

rain/snow radar image from www.meteo.lv and METAR data from weather.noaa.gov